Time,TemperatureF,DewpointF,PressureIn,WindDirection,WindDirectionDegrees,WindSpeedMPH,WindSpeedGustMPH,Humidity,HourlyPrecipIn,Conditions,Clouds,dailyrainin,SoftwareType,DateUTC
2013-01-15 00:04:00,20.3,17.0,30.17,South,190,0.0,1.0,88,0.00,,,0.00,weatherlink.com 1.10,2013-01-15 05:04:00,
2013-01-15 00:19:00,20.2,17.0,30.17,SSW,205,0.0,4.0,88,0.00,,,0.00,weatherlink.com 1.10,2013-01-15 05:19:00,
2013-01-15 00:34:00,20.2,17.0,30.17,SSW,192,0.0,2.0,88,0.00,,,0.00,weatherlink.com 1.10,2013-01-15 05:34:00,
2013-01-15 00:49:00,20.2,17.0,30.17,NNW,340,0.0,4.0,87,0.00,,,0.00,weatherlink.com 1.10,2013-01-15 05:49:00,
2013-01-15 01:04:00,20.1,16.0,30.17,WSW,255,1.0,5.0,85,0.00,,,0.00,weatherlink.com 1.10,2013-01-15 06:04:00,
2013-01-15 01:19:00,19.6,15.0,30.17,SSW,195,11.0,11.0,82,0.00,,,0.00,weatherlink.com 1.10,2013-01-15 06:19:00,
2013-01-15 01:35:00,18.7,14.0,30.17,SSW,201,0.0,5.0,80,0.00,,,0.00,weatherlink.com 1.10,2013-01-15 06:35:00,
2013-01-15 01:50:00,17.8,12.0,30.17,WSW,248,2.0,8.0,79,0.00,,,0.00,weatherlink.com 1.10,2013-01-15 06:50:00,
2013-01-15 02:05:00,17.1,11.0,30.17,SSW,211,2.0,9.0,77,0.00,,,0.00,weatherlink.com 1.10,2013-01-15 07:05:00,
2013-01-15 02:20:00,16.5,11.0,30.18,South,172,2.0,8.0,78,0.00,,,0.00,weatherlink.com 1.10,2013-01-15 07:20:00,
2013-01-15 02:35:00,16.0,10.0,30.19,WSW,242,2.0,6.0,77,0.00,,,0.00,weatherlink.com 1.10,2013-01-15 07:35:00,
2013-01-15 02:50:00,15.5,10.0,30.19,WNW,302,1.0,9.0,77,0.00,,,0.00,weatherlink.com 1.10,2013-01-15 07:50:00,
2013-01-15 03:05:00,14.9,9.0,30.20,SSW,209,1.0,6.0,77,0.00,,,0.00,weatherlink.com 1.10,2013-01-15 08:05:00,
2013-01-15 03:20:00,14.5,9.0,30.19,SW,215,4.0,6.0,77,0.00,,,0.00,weatherlink.com 1.10,2013-01-15 08:20:00,
2013-01-15 03:35:00,14.4,8.0,30.19,WSW,248,0.0,7.0,77,0.00,,,0.00,weatherlink.com 1.10,2013-01-15 08:35:00,
2013-01-15 03:50:00,14.2,8.0,30.19,SW,225,0.0,5.0,77,0.00,,,0.00,weatherlink.com 1.10,2013-01-15 08:50:00,
2013-01-15 04:05:00,14.1,8.0,30.19,SSW,206,2.0,8.0,77,0.00,,,0.00,weatherlink.com 1.10,2013-01-15 09:05:00,
2013-01-15 04:20:00,13.7,7.0,30.19,SSW,209,2.0,8.0,76,0.00,,,0.00,weatherlink.com 1.10,2013-01-15 09:20:00,
2013-01-15 04:35:00,13.0,7.0,30.19,SSW,201,3.0,7.0,77,0.00,,,0.00,weatherlink.com 1.10,2013-01-15 09:35:00,
2013-01-15 04:50:00,12.6,7.0,30.19,SW,215,4.0,8.0,78,0.00,,,0.00,weatherlink.com 1.10,2013-01-15 09:50:00,
2013-01-15 05:05:00,12.1,7.0,30.18,South,183,2.0,7.0,79,0.00,,,0.00,weatherlink.com 1.10,2013-01-15 10:05:00,
2013-01-15 05:20:00,11.5,6.0,30.18,SSW,197,1.0,5.0,79,0.00,,,0.00,weatherlink.com 1.10,2013-01-15 10:20:00,
2013-01-15 05:35:00,11.3,6.0,30.18,West,276,4.0,10.0,80,0.00,,,0.00,weatherlink.com 1.10,2013-01-15 10:35:00,
2013-01-15 05:50:00,11.0,6.0,30.19,WSW,250,0.0,8.0,80,0.00,,,0.00,weatherlink.com 1.10,2013-01-15 10:50:00,
2013-01-15 06:05:00,10.9,6.0,30.19,SSW,211,4.0,7.0,81,0.00,,,0.00,weatherlink.com 1.10,2013-01-15 11:05:00,
2013-01-15 06:20:00,10.3,6.0,30.19,WSW,245,1.0,4.0,81,0.00,,,0.00,weatherlink.com 1.10,2013-01-15 11:20:00,
2013-01-15 06:35:00,9.7,5.0,30.20,SSE,152,0.0,2.0,82,0.00,,,0.00,weatherlink.com 1.10,2013-01-15 11:35:00,
2013-01-15 06:51:00,9.4,5.0,30.20,SSE,162,1.0,4.0,83,0.00,,,0.00,weatherlink.com 1.10,2013-01-15 11:51:00,
2013-01-15 07:06:00,9.1,5.0,30.20,SW,226,0.0,4.0,84,0.00,,,0.00,weatherlink.com 1.10,2013-01-15 12:06:00,
2013-01-15 07:21:00,8.8,5.0,30.20,SSE,158,1.0,4.0,84,0.00,,,0.00,weatherlink.com 1.10,2013-01-15 12:21:00,
2013-01-15 07:36:00,8.8,5.0,30.21,South,190,0.0,6.0,84,0.00,,,0.00,weatherlink.com 1.10,2013-01-15 12:36:00,
2013-01-15 07:51:00,8.9,5.0,30.21,WSW,255,2.0,4.0,84,0.00,,,0.00,weatherlink.com 1.10,2013-01-15 12:51:00,
2013-01-15 08:06:00,8.8,5.0,30.21,SSE,162,2.0,5.0,84,0.00,,,0.00,weatherlink.com 1.10,2013-01-15 13:06:00,
2013-01-15 08:21:00,8.7,5.0,30.21,SSW,212,0.0,5.0,85,0.00,,,0.00,weatherlink.com 1.10,2013-01-15 13:21:00,
2013-01-15 08:36:00,9.8,6.0,30.22,SSW,208,3.0,6.0,83,0.00,,,0.00,weatherlink.com 1.10,2013-01-15 13:36:00,
2013-01-15 08:51:00,11.0,6.0,30.23,West,271,0.0,4.0,80,0.00,,,0.00,weatherlink.com 1.10,2013-01-15 13:51:00,
2013-01-15 09:06:00,12.2,7.0,30.23,West,267,1.0,5.0,78,0.00,,,0.00,weatherlink.com 1.10,2013-01-15 14:06:00,
2013-01-15 09:21:00,13.3,7.0,30.22,SSW,192,4.0,6.0,76,0.00,,,0.00,weatherlink.com 1.10,2013-01-15 14:21:00,
2013-01-15 09:36:00,14.5,8.0,30.22,WSW,238,0.0,8.0,74,0.00,,,0.00,weatherlink.com 1.10,2013-01-15 14:36:00,
2013-01-15 09:51:00,15.7,8.0,30.22,SSW,203,0.0,6.0,71,0.00,,,0.00,weatherlink.com 1.10,2013-01-15 14:51:00,
2013-01-15 10:06:00,17.2,8.0,30.22,WSW,239,1.0,8.0,68,0.00,,,0.00,weatherlink.com 1.10,2013-01-15 15:06:00,
2013-01-15 10:21:00,18.3,8.0,30.22,SW,233,5.0,10.0,65,0.00,,,0.00,weatherlink.com 1.10,2013-01-15 15:21:00,
2013-01-15 10:36:00,19.5,9.0,30.22,SW,224,9.0,10.0,64,0.00,,,0.00,weatherlink.com 1.10,2013-01-15 15:36:00,
2013-01-15 10:51:00,20.4,11.0,30.22,SW,229,2.0,11.0,66,0.00,,,0.00,weatherlink.com 1.10,2013-01-15 15:51:00,
2013-01-15 11:06:00,21.3,12.0,30.21,SW,214,4.0,7.0,68,0.00,,,0.00,weatherlink.com 1.10,2013-01-15 16:06:00,
2013-01-15 11:21:00,22.5,13.0,30.21,SSW,200,3.0,8.0,68,0.00,,,0.00,weatherlink.com 1.10,2013-01-15 16:21:00,
2013-01-15 11:36:00,22.9,13.0,30.19,SE,134,2.0,9.0,67,0.00,,,0.00,weatherlink.com 1.10,2013-01-15 16:36:00,
2013-01-15 11:51:00,23.8,14.0,30.18,SSW,207,9.0,10.0,66,0.00,,,0.00,weatherlink.com 1.10,2013-01-15 16:51:00,
2013-01-15 12:06:00,24.3,13.0,30.17,SW,221,6.0,11.0,62,0.00,,,0.00,weatherlink.com 1.10,2013-01-15 17:06:00,
2013-01-15 12:21:00,25.1,13.0,30.16,SSE,151,0.0,11.0,61,0.00,,,0.00,weatherlink.com 1.10,2013-01-15 17:21:00,
2013-01-15 12:36:00,25.6,13.0,30.16,SE,127,8.0,12.0,60,0.00,,,0.00,weatherlink.com 1.10,2013-01-15 17:36:00,
2013-01-15 12:51:00,26.3,14.0,30.15,South,172,1.0,11.0,60,0.00,,,0.00,weatherlink.com 1.10,2013-01-15 17:51:00,
2013-01-15 13:06:00,26.7,14.0,30.14,South,183,7.0,14.0,60,0.00,,,0.00,weatherlink.com 1.10,2013-01-15 18:06:00,
2013-01-15 13:21:00,27.1,16.0,30.14,South,184,7.0,12.0,62,0.00,,,0.00,weatherlink.com 1.10,2013-01-15 18:21:00,
2013-01-15 13:36:00,27.2,16.0,30.13,SE,139,3.0,11.0,63,0.00,,,0.00,weatherlink.com 1.10,2013-01-15 18:36:00,
2013-01-15 13:51:00,27.6,16.0,30.12,SSE,155,6.0,14.0,62,0.00,,,0.00,weatherlink.com 1.10,2013-01-15 18:51:00,
2013-01-15 14:07:00,27.1,16.0,30.11,South,177,3.0,12.0,62,0.00,,,0.00,weatherlink.com 1.10,2013-01-15 19:07:00,
2013-01-15 14:22:00,27.1,16.0,30.11,SW,218,5.0,13.0,62,0.00,,,0.00,weatherlink.com 1.10,2013-01-15 19:22:00,
2013-01-15 14:37:00,27.3,15.0,30.10,SE,146,3.0,13.0,60,0.00,,,0.00,weatherlink.com 1.10,2013-01-15 19:37:00,
2013-01-15 14:52:00,27.1,16.0,30.10,WSW,242,9.0,14.0,63,0.00,,,0.00,weatherlink.com 1.10,2013-01-15 19:52:00,
2013-01-15 15:07:00,26.7,16.0,30.10,SSE,160,2.0,14.0,64,0.00,,,0.00,weatherlink.com 1.10,2013-01-15 20:07:00,
2013-01-15 15:22:00,26.5,18.0,30.10,SSW,192,8.0,15.0,71,0.00,,,0.00,weatherlink.com 1.10,2013-01-15 20:22:00,
2013-01-15 15:37:00,25.9,20.0,30.10,SSE,149,3.0,12.0,78,0.00,,,0.00,weatherlink.com 1.10,2013-01-15 20:37:00,
2013-01-15 15:52:00,25.3,21.0,30.09,SSW,194,3.0,11.0,83,0.00,,,0.00,weatherlink.com 1.10,2013-01-15 20:52:00,
2013-01-15 16:07:00,24.8,21.0,30.09,SSE,159,3.0,9.0,86,0.00,,,0.00,weatherlink.com 1.10,2013-01-15 21:07:00,
2013-01-15 16:22:00,24.5,22.0,30.08,SSW,207,4.0,10.0,88,0.00,,,0.00,weatherlink.com 1.10,2013-01-15 21:22:00,
2013-01-15 16:37:00,24.4,22.0,30.08,SSE,156,3.0,8.0,89,0.00,,,0.00,weatherlink.com 1.10,2013-01-15 21:37:00,
2013-01-15 16:52:00,24.1,22.0,30.07,SSE,153,4.0,8.0,90,0.00,,,0.00,weatherlink.com 1.10,2013-01-15 21:52:00,
2013-01-15 17:07:00,24.0,22.0,30.06,SSW,207,5.0,11.0,90,0.00,,,0.00,weatherlink.com 1.10,2013-01-15 22:07:00,
2013-01-15 17:22:00,24.0,22.0,30.06,SSE,149,3.0,12.0,90,0.00,,,0.00,weatherlink.com 1.10,2013-01-15 22:22:00,
2013-01-15 17:37:00,24.0,22.0,30.06,SW,218,3.0,9.0,90,0.00,,,0.00,weatherlink.com 1.10,2013-01-15 22:37:00,
2013-01-15 17:52:00,24.1,22.0,30.05,South,181,5.0,8.0,91,0.00,,,0.00,weatherlink.com 1.10,2013-01-15 22:52:00,
2013-01-15 18:07:00,24.2,22.0,30.05,WSW,242,3.0,8.0,91,0.00,,,0.00,weatherlink.com 1.10,2013-01-15 23:07:00,
2013-01-15 18:22:00,24.1,22.0,30.05,SE,136,3.0,8.0,92,0.00,,,0.00,weatherlink.com 1.10,2013-01-15 23:22:00,
2013-01-15 18:37:00,24.1,22.0,30.04,SSW,212,2.0,7.0,92,0.00,,,0.00,weatherlink.com 1.10,2013-01-15 23:37:00,
2013-01-15 18:52:00,24.2,22.0,30.04,SSE,151,4.0,7.0,91,0.00,,,0.00,weatherlink.com 1.10,2013-01-15 23:52:00,
2013-01-15 19:22:00,24.1,22.0,30.03,SW,220,0.0,5.0,91,0.00,,,0.00,weatherlink.com 1.10,2013-01-16 00:22:00,
2013-01-15 19:37:00,24.3,22.0,30.02,SSE,158,4.0,8.0,91,0.00,,,0.00,weatherlink.com 1.10,2013-01-16 00:37:00,
2013-01-15 19:52:00,24.3,22.0,30.02,SSW,203,2.0,6.0,92,0.00,,,0.00,weatherlink.com 1.10,2013-01-16 00:52:00,
2013-01-15 20:07:00,24.3,22.0,30.01,SSE,150,2.0,7.0,92,0.00,,,0.00,weatherlink.com 1.10,2013-01-16 01:07:00,
2013-01-15 20:22:00,24.4,22.0,30.01,SSE,152,1.0,6.0,92,0.00,,,0.00,weatherlink.com 1.10,2013-01-16 01:22:00,
2013-01-15 20:37:00,24.7,23.0,30.00,South,190,3.0,6.0,92,0.00,,,0.00,weatherlink.com 1.10,2013-01-16 01:37:00,
2013-01-15 20:52:00,24.7,23.0,29.99,SSE,162,2.0,6.0,92,0.00,,,0.00,weatherlink.com 1.10,2013-01-16 01:52:00,
2013-01-15 21:07:00,24.7,23.0,29.99,SW,218,3.0,6.0,92,0.00,,,0.00,weatherlink.com 1.10,2013-01-16 02:07:00,
2013-01-15 21:22:00,24.6,23.0,29.98,SW,218,1.0,4.0,92,0.00,,,0.00,weatherlink.com 1.10,2013-01-16 02:22:00,
2013-01-15 21:37:00,24.4,22.0,29.97,SE,143,2.0,5.0,92,0.00,,,0.00,weatherlink.com 1.10,2013-01-16 02:37:00,
2013-01-15 21:52:00,24.3,22.0,29.97,SSE,152,3.0,3.0,92,0.00,,,0.00,weatherlink.com 1.10,2013-01-16 02:52:00,
2013-01-15 22:07:00,24.3,22.0,29.96,SE,142,2.0,5.0,92,0.00,,,0.00,weatherlink.com 1.10,2013-01-16 03:07:00,
2013-01-15 22:22:00,24.1,22.0,29.95,SW,231,2.0,8.0,92,0.00,,,0.00,weatherlink.com 1.10,2013-01-16 03:22:00,
2013-01-15 22:37:00,23.9,22.0,29.95,South,183,2.0,4.0,92,0.00,,,0.00,weatherlink.com 1.10,2013-01-16 03:37:00,
2013-01-15 22:52:00,23.5,22.0,29.94,South,169,4.0,4.0,92,0.00,,,0.00,weatherlink.com 1.10,2013-01-16 03:52:00,
2013-01-15 23:07:00,23.1,21.0,29.93,SSW,210,1.0,2.0,93,0.00,,,0.00,weatherlink.com 1.10,2013-01-16 04:07:00,
2013-01-15 23:22:00,23.4,22.0,29.93,WSW,240,0.0,2.0,93,0.00,,,0.00,weatherlink.com 1.10,2013-01-16 04:22:00,
2013-01-15 23:37:00,23.8,22.0,29.92,SE,146,3.0,3.0,92,0.00,,,0.00,weatherlink.com 1.10,2013-01-16 04:37:00,
2013-01-15 23:53:00,23.8,22.0,29.91,SE,141,0.0,2.0,92,0.00,,,0.00,weatherlink.com 1.10,2013-01-16 04:53:00,